Time,TemperatureF,DewpointF,PressureIn,WindDirection,WindDirectionDegrees,WindSpeedMPH,WindSpeedGustMPH,Humidity,HourlyPrecipIn,Conditions,Clouds,dailyrainin,SolarRadiationWatts/m^2,SoftwareType,DateUTC
2013-09-18 00:09:00,78.5,75.3,29.79,North,-999,0.0,0.0,90,0.00,,,-99.99,0,WeatherLink 5.4,2013-09-18 04:09:00,
2013-09-18 00:10:00,78.3,75.1,29.79,North,-999,0.0,0.0,90,0.00,,,-99.99,0,WeatherLink 5.4,2013-09-18 04:10:00,
2013-09-18 00:20:00,78.2,75.0,29.78,North,-999,0.0,0.0,90,0.00,,,-99.99,0,WeatherLink 5.4,2013-09-18 04:20:00,
2013-09-18 00:24:00,78.2,75.0,29.78,North,-999,0.0,0.0,90,0.00,,,-99.99,0,WeatherLink 5.4,2013-09-18 04:24:00,
2013-09-18 00:39:00,78.1,75.3,29.78,North,-999,0.0,0.0,91,0.00,,,-99.99,0,WeatherLink 5.4,2013-09-18 04:39:00,
2013-09-18 00:40:00,78.1,75.3,29.78,North,-999,0.0,0.0,91,0.00,,,-99.99,0,WeatherLink 5.4,2013-09-18 04:40:00,
2013-09-18 00:50:00,78.1,75.3,29.78,North,-999,0.0,0.0,91,0.00,,,-99.99,0,WeatherLink 5.4,2013-09-18 04:50:00,
2013-09-18 00:54:00,78.1,75.3,29.78,North,-999,0.0,0.0,91,0.00,,,-99.99,0,WeatherLink 5.4,2013-09-18 04:54:00,
2013-09-18 01:09:00,78.0,75.2,29.77,North,-999,0.0,0.0,91,0.00,,,-99.99,0,WeatherLink 5.4,2013-09-18 05:09:00,
2013-09-18 01:10:00,77.9,75.1,29.77,North,-999,0.0,0.0,91,0.00,,,-99.99,0,WeatherLink 5.4,2013-09-18 05:10:00,
2013-09-18 01:20:00,77.9,75.1,29.77,North,-999,0.0,0.0,91,0.00,,,-99.99,0,WeatherLink 5.4,2013-09-18 05:20:00,
2013-09-18 01:24:00,77.9,75.1,29.77,North,-999,0.0,0.0,91,0.00,,,-99.99,0,WeatherLink 5.4,2013-09-18 05:24:00,
2013-09-18 01:38:00,77.7,74.9,29.77,North,-999,0.0,0.0,91,0.00,,,-99.99,0,WeatherLink 5.4,2013-09-18 05:38:00,
2013-09-18 01:40:00,77.7,74.9,29.77,North,-999,0.0,0.0,91,0.00,,,-99.99,0,WeatherLink 5.4,2013-09-18 05:40:00,
2013-09-18 01:50:00,77.7,74.9,29.76,North,-999,0.0,0.0,91,0.00,,,-99.99,0,WeatherLink 5.4,2013-09-18 05:50:00,
2013-09-18 01:53:00,77.7,74.9,29.76,North,-999,0.0,0.0,91,0.00,,,-99.99,0,WeatherLink 5.4,2013-09-18 05:53:00,
2013-09-18 02:08:00,77.6,74.8,29.75,North,-999,0.0,0.0,91,0.00,,,-99.99,0,WeatherLink 5.4,2013-09-18 06:08:00,
2013-09-18 02:10:00,77.6,74.8,29.75,North,-999,0.0,0.0,91,0.00,,,-99.99,0,WeatherLink 5.4,2013-09-18 06:10:00,
2013-09-18 02:20:00,77.5,74.7,29.75,North,-999,0.0,0.0,91,0.00,,,-99.99,0,WeatherLink 5.4,2013-09-18 06:20:00,
2013-09-18 02:24:00,77.5,74.7,29.75,North,-999,0.0,0.0,91,0.00,,,-99.99,0,WeatherLink 5.4,2013-09-18 06:24:00,
2013-09-18 02:39:00,77.4,74.9,29.74,North,-999,0.0,0.0,92,0.00,,,-99.99,0,WeatherLink 5.4,2013-09-18 06:39:00,
2013-09-18 02:40:00,77.3,74.8,29.74,North,-999,0.0,0.0,92,0.00,,,-99.99,0,WeatherLink 5.4,2013-09-18 06:40:00,
2013-09-18 02:50:00,77.2,74.7,29.74,North,-999,0.0,0.0,92,0.00,,,-99.99,0,WeatherLink 5.4,2013-09-18 06:50:00,
2013-09-18 02:54:00,77.2,74.7,29.74,North,-999,0.0,0.0,92,0.00,,,-99.99,0,WeatherLink 5.4,2013-09-18 06:54:00,
2013-09-18 03:09:00,77.1,74.6,29.74,North,-999,0.0,0.0,92,0.00,,,-99.99,0,WeatherLink 5.4,2013-09-18 07:09:00,
2013-09-18 03:10:00,77.0,74.5,29.74,North,-999,0.0,0.0,92,0.00,,,-99.99,0,WeatherLink 5.4,2013-09-18 07:10:00,
2013-09-18 03:20:00,77.0,74.5,29.74,North,-999,0.0,0.0,92,0.00,,,-99.99,0,WeatherLink 5.4,2013-09-18 07:20:00,
2013-09-18 03:24:00,77.0,74.5,29.74,North,-999,0.0,0.0,92,0.00,,,-99.99,0,WeatherLink 5.4,2013-09-18 07:24:00,
2013-09-18 03:39:00,76.9,74.4,29.74,North,-999,0.0,0.0,92,0.00,,,-99.99,0,WeatherLink 5.4,2013-09-18 07:39:00,
2013-09-18 03:40:00,76.8,74.3,29.74,North,-999,0.0,0.0,92,0.00,,,-99.99,0,WeatherLink 5.4,2013-09-18 07:40:00,
2013-09-18 03:50:00,76.7,74.2,29.74,North,-999,0.0,0.0,92,0.00,,,-99.99,0,WeatherLink 5.4,2013-09-18 07:50:00,
2013-09-18 03:54:00,76.7,74.2,29.74,North,-999,0.0,0.0,92,0.00,,,-99.99,0,WeatherLink 5.4,2013-09-18 07:54:00,
2013-09-18 04:09:00,76.7,74.2,29.75,North,-999,0.0,0.0,92,0.00,,,-99.99,0,WeatherLink 5.4,2013-09-18 08:09:00,
2013-09-18 04:10:00,76.7,74.2,29.75,North,-999,0.0,0.0,92,0.00,,,-99.99,0,WeatherLink 5.4,2013-09-18 08:10:00,
2013-09-18 04:20:00,76.5,74.0,29.75,North,-999,0.0,0.0,92,0.00,,,-99.99,0,WeatherLink 5.4,2013-09-18 08:20:00,
2013-09-18 04:24:00,76.5,74.0,29.75,North,-999,0.0,0.0,92,0.00,,,-99.99,0,WeatherLink 5.4,2013-09-18 08:24:00,
2013-09-18 04:39:00,76.5,74.0,29.75,North,-999,0.0,0.0,92,0.00,,,-99.99,0,WeatherLink 5.4,2013-09-18 08:39:00,
2013-09-18 04:40:00,76.3,73.8,29.75,North,-999,0.0,0.0,92,0.00,,,-99.99,0,WeatherLink 5.4,2013-09-18 08:40:00,
2013-09-18 04:50:00,76.3,73.8,29.75,North,-999,0.0,0.0,92,0.00,,,-99.99,0,WeatherLink 5.4,2013-09-18 08:50:00,
2013-09-18 04:54:00,76.3,73.8,29.75,North,-999,0.0,0.0,92,0.00,,,-99.99,0,WeatherLink 5.4,2013-09-18 08:54:00,
2013-09-18 05:08:00,76.3,73.8,29.75,North,-999,0.0,0.0,92,0.00,,,-99.99,0,WeatherLink 5.4,2013-09-18 09:08:00,
2013-09-18 05:10:00,76.1,73.6,29.75,North,-999,0.0,0.0,92,0.00,,,-99.99,0,WeatherLink 5.4,2013-09-18 09:10:00,
2013-09-18 05:20:00,76.1,73.6,29.75,North,-999,0.0,0.0,92,0.00,,,-99.99,0,WeatherLink 5.4,2013-09-18 09:20:00,
2013-09-18 05:24:00,76.1,73.6,29.75,North,-999,0.0,0.0,92,0.00,,,-99.99,0,WeatherLink 5.4,2013-09-18 09:24:00,
2013-09-18 05:39:00,76.1,73.6,29.75,North,-999,0.0,0.0,92,0.00,,,-99.99,0,WeatherLink 5.4,2013-09-18 09:39:00,
2013-09-18 05:40:00,76.0,73.5,29.75,North,-999,0.0,0.0,92,0.00,,,-99.99,0,WeatherLink 5.4,2013-09-18 09:40:00,
2013-09-18 05:50:00,76.0,73.8,29.76,North,-999,0.0,0.0,93,0.00,,,-99.99,0,WeatherLink 5.4,2013-09-18 09:50:00,
2013-09-18 05:54:00,76.0,73.8,29.76,North,-999,0.0,0.0,93,0.00,,,-99.99,0,WeatherLink 5.4,2013-09-18 09:54:00,
2013-09-18 06:09:00,76.0,73.8,29.76,North,-999,0.0,0.0,93,0.01,,,-99.99,0,WeatherLink 5.4,2013-09-18 10:09:00,
2013-09-18 06:10:00,75.9,73.7,29.76,North,-999,0.0,0.0,93,0.01,,,-99.99,0,WeatherLink 5.4,2013-09-18 10:10:00,
2013-09-18 06:20:00,75.8,73.6,29.76,North,-999,0.0,0.0,93,0.01,,,-99.99,2,WeatherLink 5.4,2013-09-18 10:20:00,
2013-09-18 06:24:00,75.8,73.6,29.76,North,-999,0.0,0.0,93,0.01,,,-99.99,2,WeatherLink 5.4,2013-09-18 10:24:00,
2013-09-18 06:39:00,75.8,73.6,29.76,North,-999,0.0,0.0,93,0.01,,,-99.99,10,WeatherLink 5.4,2013-09-18 10:39:00,
2013-09-18 06:40:00,75.8,73.6,29.76,North,-999,0.0,0.0,93,0.01,,,-99.99,33,WeatherLink 5.4,2013-09-18 10:40:00,
2013-09-18 06:50:00,75.8,73.6,29.76,North,-999,0.0,0.0,93,0.01,,,-99.99,65,WeatherLink 5.4,2013-09-18 10:50:00,
2013-09-18 06:54:00,75.8,73.6,29.76,North,-999,0.0,0.0,93,0.01,,,-99.99,65,WeatherLink 5.4,2013-09-18 10:54:00,
2013-09-18 07:09:00,76.0,73.8,29.77,North,-999,0.0,0.0,93,0.00,,,-99.99,95,WeatherLink 5.4,2013-09-18 11:09:00,
2013-09-18 07:10:00,76.0,73.8,29.77,North,-999,0.0,0.0,93,0.00,,,-99.99,126,WeatherLink 5.4,2013-09-18 11:10:00,
2013-09-18 07:20:00,76.3,74.1,29.77,North,-999,0.0,0.0,93,0.00,,,-99.99,159,WeatherLink 5.4,2013-09-18 11:20:00,
2013-09-18 07:24:00,76.3,74.1,29.77,North,-999,0.0,0.0,93,0.00,,,-99.99,159,WeatherLink 5.4,2013-09-18 11:24:00,
2013-09-18 07:39:00,76.8,74.6,29.78,North,-999,0.0,0.0,93,0.00,,,-99.99,195,WeatherLink 5.4,2013-09-18 11:39:00,
2013-09-18 07:40:00,77.2,74.7,29.78,North,-999,0.0,0.0,92,0.00,,,-99.99,240,WeatherLink 5.4,2013-09-18 11:40:00,
2013-09-18 07:50:00,77.8,75.3,29.78,North,-999,0.0,0.0,92,0.00,,,-99.99,277,WeatherLink 5.4,2013-09-18 11:50:00,
2013-09-18 07:53:00,77.8,75.3,29.78,North,-999,0.0,0.0,92,0.00,,,-99.99,277,WeatherLink 5.4,2013-09-18 11:53:00,
2013-09-18 08:08:00,78.4,75.2,29.79,North,-999,0.0,0.0,90,0.00,,,-99.99,316,WeatherLink 5.4,2013-09-18 12:08:00,
2013-09-18 08:10:00,79.2,75.3,29.79,North,-999,0.0,0.0,88,0.00,,,-99.99,352,WeatherLink 5.4,2013-09-18 12:10:00,
2013-09-18 08:20:00,80.0,75.1,29.79,North,-999,0.0,0.0,85,0.00,,,-99.99,392,WeatherLink 5.4,2013-09-18 12:20:00,
2013-09-18 08:25:00,80.0,75.1,29.79,North,-999,0.0,0.0,85,0.00,,,-99.99,392,WeatherLink 5.4,2013-09-18 12:25:00,
2013-09-18 08:39:00,81.3,74.2,29.80,ENE,67,0.0,3.0,79,0.00,,,-99.99,430,WeatherLink 5.4,2013-09-18 12:39:00,
2013-09-18 08:40:00,82.7,74.4,29.80,North,-999,0.0,0.0,76,0.00,,,-99.99,466,WeatherLink 5.4,2013-09-18 12:40:00,
2013-09-18 08:50:00,83.8,75.0,29.80,North,-999,0.0,0.0,75,0.00,,,-99.99,514,WeatherLink 5.4,2013-09-18 12:50:00,
2013-09-18 08:54:00,83.8,75.0,29.80,North,-999,0.0,0.0,75,0.00,,,-99.99,514,WeatherLink 5.4,2013-09-18 12:54:00,
2013-09-18 09:09:00,84.4,75.2,29.80,ENE,67,1.0,10.0,74,0.00,,,-99.99,523,WeatherLink 5.4,2013-09-18 13:09:00,
2013-09-18 09:10:00,85.0,75.0,29.80,North,-999,0.0,0.0,72,0.00,,,-99.99,657,WeatherLink 5.4,2013-09-18 13:10:00,
2013-09-18 09:20:00,85.5,74.6,29.80,North,-999,0.0,0.0,70,0.00,,,-99.99,637,WeatherLink 5.4,2013-09-18 13:20:00,
2013-09-18 09:24:00,85.5,74.6,29.80,North,-999,0.0,0.0,70,0.00,,,-99.99,637,WeatherLink 5.4,2013-09-18 13:24:00,
2013-09-18 09:39:00,85.8,74.9,29.80,ESE,112,0.0,1.0,70,0.00,,,-99.99,663,WeatherLink 5.4,2013-09-18 13:39:00,
2013-09-18 09:40:00,86.2,74.0,29.80,North,-999,0.0,0.0,67,0.00,,,-99.99,690,WeatherLink 5.4,2013-09-18 13:40:00,
2013-09-18 09:50:00,86.8,73.6,29.80,North,-999,0.0,0.0,65,0.00,,,-99.99,670,WeatherLink 5.4,2013-09-18 13:50:00,
2013-09-18 09:54:00,86.8,73.6,29.80,North,-999,0.0,0.0,65,0.00,,,-99.99,670,WeatherLink 5.4,2013-09-18 13:54:00,
2013-09-18 10:09:00,87.3,74.5,29.80,North,-999,0.0,0.0,66,0.00,,,-99.99,787,WeatherLink 5.4,2013-09-18 14:09:00,
2013-09-18 10:10:00,88.0,74.3,29.80,East,90,1.0,6.0,64,0.00,,,-99.99,875,WeatherLink 5.4,2013-09-18 14:10:00,
2013-09-18 10:20:00,88.2,74.5,29.80,SE,135,1.0,7.0,64,0.00,,,-99.99,746,WeatherLink 5.4,2013-09-18 14:20:00,
2013-09-18 10:24:00,88.2,74.5,29.80,SE,135,1.0,7.0,64,0.00,,,-99.99,746,WeatherLink 5.4,2013-09-18 14:24:00,
2013-09-18 10:39:00,88.0,74.8,29.79,SE,135,2.0,7.0,65,0.00,,,-99.99,694,WeatherLink 5.4,2013-09-18 14:39:00,
2013-09-18 10:40:00,88.2,74.0,29.79,SE,135,3.0,11.0,63,0.00,,,-99.99,959,WeatherLink 5.4,2013-09-18 14:40:00,
2013-09-18 10:50:00,88.6,74.4,29.79,ESE,112,1.0,8.0,63,0.00,,,-99.99,908,WeatherLink 5.4,2013-09-18 14:50:00,
2013-09-18 10:54:00,88.6,74.4,29.79,ESE,112,1.0,8.0,63,0.00,,,-99.99,908,WeatherLink 5.4,2013-09-18 14:54:00,
2013-09-18 11:08:00,88.9,74.2,29.79,ESE,112,3.0,12.0,62,0.00,,,-99.99,904,WeatherLink 5.4,2013-09-18 15:08:00,
2013-09-18 11:10:00,89.2,74.5,29.79,East,90,3.0,12.0,62,0.00,,,-99.99,602,WeatherLink 5.4,2013-09-18 15:10:00,
2013-09-18 11:20:00,88.3,78.1,29.80,SE,135,4.0,10.0,72,0.00,,,-99.99,232,WeatherLink 5.4,2013-09-18 15:20:00,
2013-09-18 11:24:00,88.3,78.1,29.80,SE,135,4.0,10.0,72,0.00,,,-99.99,232,WeatherLink 5.4,2013-09-18 15:24:00,
2013-09-18 11:39:00,87.0,75.6,29.79,ESE,112,1.0,11.0,69,0.00,,,-99.99,921,WeatherLink 5.4,2013-09-18 15:39:00,
2013-09-18 11:40:00,86.9,72.8,29.79,ESE,112,1.0,8.0,63,0.00,,,-99.99,987,WeatherLink 5.4,2013-09-18 15:40:00,
2013-09-18 11:50:00,88.2,72.1,29.78,ESE,112,2.0,9.0,59,0.00,,,-99.99,983,WeatherLink 5.4,2013-09-18 15:50:00,
2013-09-18 11:54:00,88.2,72.1,29.78,ESE,112,2.0,9.0,59,0.00,,,-99.99,983,WeatherLink 5.4,2013-09-18 15:54:00,
2013-09-18 12:09:00,88.9,73.2,29.78,East,90,2.0,10.0,60,0.00,,,-99.99,999,WeatherLink 5.4,2013-09-18 16:09:00,
2013-09-18 12:10:00,88.9,74.2,29.78,East,90,3.0,11.0,62,0.00,,,-99.99,930,WeatherLink 5.4,2013-09-18 16:10:00,
2013-09-18 12:20:00,89.4,75.1,29.77,SE,135,2.0,10.0,63,0.00,,,-99.99,952,WeatherLink 5.4,2013-09-18 16:20:00,
2013-09-18 12:24:00,89.4,75.1,29.77,SE,135,2.0,10.0,63,0.00,,,-99.99,952,WeatherLink 5.4,2013-09-18 16:24:00,
2013-09-18 12:30:00,89.7,74.9,29.76,ESE,112,2.0,7.0,62,0.00,,,-99.99,579,WeatherLink 5.4,2013-09-18 16:30:00,
2013-09-18 12:40:00,89.4,75.1,29.76,East,90,2.0,13.0,63,0.01,,,-99.99,510,WeatherLink 5.4,2013-09-18 16:40:00,
2013-09-18 12:50:00,89.2,77.3,29.76,East,90,3.0,9.0,68,0.01,,,-99.99,727,WeatherLink 5.4,2013-09-18 16:50:00,
2013-09-18 12:54:00,89.2,77.3,29.76,East,90,3.0,9.0,68,0.01,,,-99.99,727,WeatherLink 5.4,2013-09-18 16:54:00,
2013-09-18 13:09:00,88.6,76.2,29.75,ENE,67,3.0,11.0,67,0.01,,,-99.99,1042,WeatherLink 5.4,2013-09-18 17:09:00,
2013-09-18 13:10:00,88.5,77.0,29.75,East,90,3.0,12.0,69,0.01,,,-99.99,364,WeatherLink 5.4,2013-09-18 17:10:00,
2013-09-18 13:20:00,87.4,76.4,29.75,East,90,5.0,21.0,70,0.01,,,-99.99,426,WeatherLink 5.4,2013-09-18 17:20:00,
2013-09-18 13:24:00,87.4,76.4,29.75,East,90,5.0,21.0,70,0.01,,,-99.99,426,WeatherLink 5.4,2013-09-18 17:24:00,
2013-09-18 13:39:00,87.0,76.5,29.74,East,90,3.0,11.0,71,0.01,,,-99.99,985,WeatherLink 5.4,2013-09-18 17:39:00,
2013-09-18 13:40:00,87.3,76.3,29.74,East,90,2.0,10.0,70,0.00,,,-99.99,942,WeatherLink 5.4,2013-09-18 17:40:00,
2013-09-18 13:50:00,87.5,75.2,29.74,East,90,2.0,10.0,67,0.00,,,-99.99,973,WeatherLink 5.4,2013-09-18 17:50:00,
2013-09-18 13:54:00,87.5,75.2,29.74,East,90,2.0,10.0,67,0.00,,,-99.99,973,WeatherLink 5.4,2013-09-18 17:54:00,
2013-09-18 14:09:00,88.4,74.7,29.73,East,90,2.0,11.0,64,0.00,,,-99.99,633,WeatherLink 5.4,2013-09-18 18:09:00,
2013-09-18 14:10:00,89.2,74.5,29.73,East,90,2.0,8.0,62,0.00,,,-99.99,637,WeatherLink 5.4,2013-09-18 18:10:00,
2013-09-18 14:20:00,89.9,73.1,29.73,ESE,112,3.0,10.0,58,0.00,,,-99.99,721,WeatherLink 5.4,2013-09-18 18:20:00,
2013-09-18 14:24:00,89.9,73.1,29.73,ESE,112,3.0,10.0,58,0.00,,,-99.99,721,WeatherLink 5.4,2013-09-18 18:24:00,
2013-09-18 14:39:00,90.5,73.7,29.73,SE,135,5.0,14.0,58,0.00,,,-99.99,989,WeatherLink 5.4,2013-09-18 18:39:00,
2013-09-18 14:40:00,90.9,74.1,29.73,East,90,3.0,12.0,58,0.00,,,-99.99,283,WeatherLink 5.4,2013-09-18 18:40:00,
2013-09-18 14:50:00,90.0,73.2,29.73,ESE,112,3.0,8.0,58,0.00,,,-99.99,147,WeatherLink 5.4,2013-09-18 18:50:00,
2013-09-18 14:54:00,90.0,73.2,29.73,ESE,112,3.0,8.0,58,0.00,,,-99.99,147,WeatherLink 5.4,2013-09-18 18:54:00,
2013-09-18 15:00:00,89.8,73.0,29.72,ESE,112,1.0,9.0,58,0.00,,,-99.99,251,WeatherLink 5.4,2013-09-18 19:00:00,
2013-09-18 15:10:00,89.9,73.7,29.72,ESE,112,2.0,11.0,59,0.00,,,-99.99,319,WeatherLink 5.4,2013-09-18 19:10:00,
2013-09-18 15:20:00,90.0,73.7,29.72,ESE,112,1.0,8.0,59,0.00,,,-99.99,154,WeatherLink 5.4,2013-09-18 19:20:00,
2013-09-18 15:24:00,90.0,73.7,29.72,ESE,112,1.0,8.0,59,0.00,,,-99.99,154,WeatherLink 5.4,2013-09-18 19:24:00,
2013-09-18 15:39:00,89.8,73.6,29.72,SE,135,2.0,12.0,59,0.00,,,-99.99,186,WeatherLink 5.4,2013-09-18 19:39:00,
2013-09-18 15:40:00,89.7,73.5,29.72,SE,135,1.0,10.0,59,0.00,,,-99.99,300,WeatherLink 5.4,2013-09-18 19:40:00,
2013-09-18 15:50:00,89.9,73.7,29.73,SE,135,1.0,6.0,59,0.00,,,-99.99,306,WeatherLink 5.4,2013-09-18 19:50:00,
2013-09-18 15:54:00,89.9,73.7,29.73,SE,135,1.0,6.0,59,0.00,,,-99.99,306,WeatherLink 5.4,2013-09-18 19:54:00,
2013-09-18 16:09:00,89.8,73.6,29.73,ESE,112,1.0,8.0,59,0.00,,,-99.99,305,WeatherLink 5.4,2013-09-18 20:09:00,
2013-09-18 16:10:00,89.5,73.8,29.73,SE,135,1.0,7.0,60,0.00,,,-99.99,315,WeatherLink 5.4,2013-09-18 20:10:00,
2013-09-18 16:20:00,89.4,74.2,29.73,SSE,157,0.0,3.0,61,0.00,,,-99.99,198,WeatherLink 5.4,2013-09-18 20:20:00,
2013-09-18 16:24:00,89.4,74.2,29.73,SSE,157,0.0,3.0,61,0.00,,,-99.99,198,WeatherLink 5.4,2013-09-18 20:24:00,
2013-09-18 16:39:00,89.6,73.9,29.73,South,180,0.0,8.0,60,0.00,,,-99.99,286,WeatherLink 5.4,2013-09-18 20:39:00,
2013-09-18 16:40:00,89.5,73.3,29.73,ESE,112,1.0,9.0,59,0.00,,,-99.99,169,WeatherLink 5.4,2013-09-18 20:40:00,
2013-09-18 16:50:00,89.0,73.3,29.73,ESE,112,2.0,9.0,60,0.00,,,-99.99,235,WeatherLink 5.4,2013-09-18 20:50:00,
2013-09-18 16:54:00,89.0,73.3,29.73,ESE,112,2.0,9.0,60,0.00,,,-99.99,235,WeatherLink 5.4,2013-09-18 20:54:00,
2013-09-18 17:10:00,88.8,74.1,29.72,ESE,112,1.0,8.0,62,0.00,,,-99.99,176,WeatherLink 5.4,2013-09-18 21:10:00,
2013-09-18 17:20:00,88.1,73.4,29.73,East,90,0.0,8.0,62,0.00,,,-99.99,66,WeatherLink 5.4,2013-09-18 21:20:00,
2013-09-18 17:24:00,88.1,73.4,29.73,East,90,0.0,8.0,62,0.00,,,-99.99,66,WeatherLink 5.4,2013-09-18 21:24:00,
2013-09-18 17:39:00,87.6,73.4,29.74,SE,135,2.0,10.0,63,0.00,,,-99.99,100,WeatherLink 5.4,2013-09-18 21:39:00,
2013-09-18 17:40:00,87.2,73.5,29.74,ESE,112,2.0,10.0,64,0.00,,,-99.99,94,WeatherLink 5.4,2013-09-18 21:40:00,
2013-09-18 17:50:00,86.9,73.7,29.74,SE,135,1.0,8.0,65,0.00,,,-99.99,32,WeatherLink 5.4,2013-09-18 21:50:00,
2013-09-18 17:55:00,86.9,73.7,29.74,SE,135,1.0,8.0,65,0.00,,,-99.99,32,WeatherLink 5.4,2013-09-18 21:55:00,
2013-09-18 18:09:00,86.6,73.9,29.75,SE,135,0.0,5.0,66,0.00,,,-99.99,25,WeatherLink 5.4,2013-09-18 22:09:00,
2013-09-18 18:10:00,86.4,73.7,29.75,North,-999,0.0,0.0,66,0.00,,,-99.99,18,WeatherLink 5.4,2013-09-18 22:10:00,
2013-09-18 18:20:00,86.2,73.5,29.75,ESE,112,1.0,7.0,66,0.00,,,-99.99,11,WeatherLink 5.4,2013-09-18 22:20:00,
2013-09-18 18:24:00,86.2,73.5,29.75,ESE,112,1.0,7.0,66,0.00,,,-99.99,11,WeatherLink 5.4,2013-09-18 22:24:00,
2013-09-18 18:39:00,86.0,73.8,29.75,SE,135,1.0,8.0,67,0.00,,,-99.99,3,WeatherLink 5.4,2013-09-18 22:39:00,
2013-09-18 18:40:00,85.8,74.0,29.75,SE,135,0.0,1.0,68,0.00,,,-99.99,0,WeatherLink 5.4,2013-09-18 22:40:00,
2013-09-18 18:50:00,85.7,74.4,29.75,North,-999,0.0,0.0,69,0.00,,,-99.99,0,WeatherLink 5.4,2013-09-18 22:50:00,
2013-09-18 18:54:00,85.7,74.4,29.75,North,-999,0.0,0.0,69,0.00,,,-99.99,0,WeatherLink 5.4,2013-09-18 22:54:00,
2013-09-18 19:09:00,85.6,74.7,29.76,ESE,112,0.0,4.0,70,0.00,,,-99.99,0,WeatherLink 5.4,2013-09-18 23:09:00,
2013-09-18 19:10:00,85.2,74.7,29.76,ESE,112,0.0,4.0,71,0.00,,,-99.99,0,WeatherLink 5.4,2013-09-18 23:10:00,
2013-09-18 19:20:00,85.0,74.5,29.77,ESE,112,0.0,5.0,71,0.00,,,-99.99,0,WeatherLink 5.4,2013-09-18 23:20:00,
2013-09-18 19:24:00,85.0,74.5,29.77,ESE,112,0.0,5.0,71,0.00,,,-99.99,0,WeatherLink 5.4,2013-09-18 23:24:00,
2013-09-18 19:30:00,84.8,74.8,29.78,ESE,112,0.0,5.0,72,0.00,,,-99.99,0,WeatherLink 5.4,2013-09-18 23:30:00,
2013-09-18 19:40:00,84.6,74.6,29.78,North,-999,0.0,0.0,72,0.00,,,-99.99,0,WeatherLink 5.4,2013-09-18 23:40:00,
2013-09-18 19:50:00,84.3,74.7,29.78,ESE,112,0.0,5.0,73,0.00,,,-99.99,0,WeatherLink 5.4,2013-09-18 23:50:00,
2013-09-18 19:54:00,84.3,74.7,29.78,ESE,112,0.0,5.0,73,0.00,,,-99.99,0,WeatherLink 5.4,2013-09-18 23:54:00,
2013-09-18 20:09:00,84.3,75.1,29.78,North,-999,0.0,0.0,74,0.00,,,-99.99,0,WeatherLink 5.4,2013-09-19 00:09:00,
2013-09-18 20:10:00,84.1,74.9,29.78,North,-999,0.0,0.0,74,0.00,,,-99.99,0,WeatherLink 5.4,2013-09-19 00:10:00,
2013-09-18 20:20:00,84.0,75.2,29.79,North,-999,0.0,0.0,75,0.00,,,-99.99,0,WeatherLink 5.4,2013-09-19 00:20:00,
2013-09-18 20:24:00,84.0,75.2,29.79,North,-999,0.0,0.0,75,0.00,,,-99.99,0,WeatherLink 5.4,2013-09-19 00:24:00,
2013-09-18 20:39:00,84.0,75.2,29.80,North,-999,0.0,0.0,75,0.00,,,-99.99,0,WeatherLink 5.4,2013-09-19 00:39:00,
2013-09-18 20:40:00,83.8,75.0,29.80,North,-999,0.0,0.0,75,0.00,,,-99.99,0,WeatherLink 5.4,2013-09-19 00:40:00,
2013-09-18 20:50:00,83.8,75.0,29.81,North,-999,0.0,0.0,75,0.00,,,-99.99,0,WeatherLink 5.4,2013-09-19 00:50:00,
2013-09-18 20:54:00,83.8,75.0,29.81,North,-999,0.0,0.0,75,0.00,,,-99.99,0,WeatherLink 5.4,2013-09-19 00:54:00,
2013-09-18 21:09:00,83.8,75.0,29.81,North,-999,0.0,0.0,75,0.00,,,-99.99,0,WeatherLink 5.4,2013-09-19 01:09:00,
2013-09-18 21:10:00,83.6,75.2,29.81,North,-999,0.0,0.0,76,0.00,,,-99.99,0,WeatherLink 5.4,2013-09-19 01:10:00,
2013-09-18 21:20:00,83.6,75.2,29.81,North,-999,0.0,0.0,76,0.00,,,-99.99,0,WeatherLink 5.4,2013-09-19 01:20:00,
2013-09-18 21:24:00,83.6,75.2,29.81,North,-999,0.0,0.0,76,0.00,,,-99.99,0,WeatherLink 5.4,2013-09-19 01:24:00,
2013-09-18 21:30:00,83.4,75.0,29.81,North,-999,0.0,0.0,76,0.00,,,-99.99,0,WeatherLink 5.4,2013-09-19 01:30:00,
2013-09-18 21:40:00,83.0,75.0,29.81,North,-999,0.0,0.0,77,0.00,,,-99.99,0,WeatherLink 5.4,2013-09-19 01:40:00,
2013-09-18 21:50:00,82.6,75.0,29.82,North,-999,0.0,0.0,78,0.00,,,-99.99,0,WeatherLink 5.4,2013-09-19 01:50:00,
2013-09-18 21:54:00,82.6,75.0,29.82,North,-999,0.0,0.0,78,0.00,,,-99.99,0,WeatherLink 5.4,2013-09-19 01:54:00,
2013-09-18 22:09:00,82.2,74.7,29.82,North,-999,0.0,0.0,78,0.00,,,-99.99,0,WeatherLink 5.4,2013-09-19 02:09:00,
2013-09-18 22:10:00,82.0,74.5,29.82,North,-999,0.0,0.0,78,0.00,,,-99.99,0,WeatherLink 5.4,2013-09-19 02:10:00,
2013-09-18 22:20:00,82.0,74.8,29.83,North,-999,0.0,0.0,79,0.00,,,-99.99,0,WeatherLink 5.4,2013-09-19 02:20:00,
2013-09-18 22:24:00,82.0,74.8,29.83,North,-999,0.0,0.0,79,0.00,,,-99.99,0,WeatherLink 5.4,2013-09-19 02:24:00,
2013-09-18 22:39:00,81.9,74.7,29.83,North,-999,0.0,0.0,79,0.00,,,-99.99,0,WeatherLink 5.4,2013-09-19 02:39:00,
2013-09-18 22:40:00,81.8,74.6,29.83,North,-999,0.0,0.0,79,0.00,,,-99.99,0,WeatherLink 5.4,2013-09-19 02:40:00,
2013-09-18 22:50:00,81.6,74.5,29.83,North,-999,0.0,0.0,79,0.00,,,-99.99,0,WeatherLink 5.4,2013-09-19 02:50:00,
2013-09-18 22:54:00,81.6,74.5,29.83,North,-999,0.0,0.0,79,0.00,,,-99.99,0,WeatherLink 5.4,2013-09-19 02:54:00,
2013-09-18 23:09:00,81.5,74.7,29.83,North,-999,0.0,0.0,80,0.00,,,-99.99,0,WeatherLink 5.4,2013-09-19 03:09:00,
2013-09-18 23:10:00,81.3,74.5,29.83,North,-999,0.0,0.0,80,0.00,,,-99.99,0,WeatherLink 5.4,2013-09-19 03:10:00,
2013-09-18 23:20:00,81.0,74.6,29.83,North,-999,0.0,0.0,81,0.00,,,-99.99,0,WeatherLink 5.4,2013-09-19 03:20:00,
2013-09-18 23:24:00,81.0,74.6,29.83,North,-999,0.0,0.0,81,0.00,,,-99.99,0,WeatherLink 5.4,2013-09-19 03:24:00,
2013-09-18 23:39:00,80.7,74.3,29.83,North,-999,0.0,0.0,81,0.00,,,-99.99,0,WeatherLink 5.4,2013-09-19 03:39:00,
2013-09-18 23:40:00,80.5,74.1,29.83,North,-999,0.0,0.0,81,0.00,,,-99.99,0,WeatherLink 5.4,2013-09-19 03:40:00,
2013-09-18 23:50:00,80.4,74.0,29.82,North,-999,0.0,0.0,81,0.00,,,-99.99,0,WeatherLink 5.4,2013-09-19 03:50:00,
2013-09-18 23:54:00,80.4,74.0,29.82,North,-999,0.0,0.0,81,0.00,,,-99.99,0,WeatherLink 5.4,2013-09-19 03:54:00,